Wind_Speed
24 24 23 24 24 25 25 23 23 23 24 25 24 25 26 27 28 16 8 14 7 6 9 4 9 12 10 5 6 3 1 8 6 7 3 8 5 4 5 12 3 6 15 26 32
25 25 25 25 26 26 26 25 23 24 24 25 26 26 27 30 22 11 10 8 11 8 9 8 5 5 3 6 3 4 4 7 7 6 6 12 12 9 4 4 7 14 23 37 37
26 27 27 27 27 28 28 27 26 24 24 25 25 26 27 24 5 5 5 6 11 12 10 9 11 3 4 4 1 2 3 9 18 6 2 4 12 12 10 2 9 27 26 23 30
26 27 28 28 28 29 29 28 27 26 25 24 24 24 24 8 4 2 6 4 10 11 9 5 3 2 3 6 2 8 10 7 9 11 9 7 7 5 10 9 19 26 27 22 22
27 28 27 27 29 31 31 30 29 26 26 24 22 21 10 4 10 18 18 9 11 11 7 3 3 2 4 6 9 3 9 11 13 16 17 5 9 3 9 18 22 23 23 23 20
29 30 31 30 31 31 32 31 30 29 26 25 21 15 2 6 8 12 9 9 9 10 5 8 6 5 6 5 3 5 9 14 11 16 12 6 9 6 1 25 25 24 22 21 21
28 30 31 32 33 35 35 34 32 30 28 23 19 7 2 18 7 8 11 9 10 13 5 15 21 1 5 8 5 5 9 14 14 10 11 4 12 6 19 26 27 23 22 21 21
31 31 33 32 33 35 36 37 34 32 31 22 11 3 7 18 22 26 24 20 15 14 17 15 16 5 4 5 9 7 3 5 11 11 19 5 11 7 23 25 24 23 21 20 19
33 34 35 35 35 37 38 36 32 30 16 4 2 5 9 16 11 20 21 20 23 20 17 19 9 7 3 3 6 6 8 8 17 15 7 5 14 8 21 24 23 22 21 19 16
34 36 38 39 38 39 36 32 16 6 9 5 1 3 8 8 8 23 22 23 10 5 6 3 1 3 2 5 7 7 7 6 10 16 9 9 8 6 18 23 23 22 20 18 18
34 35 37 39 38 39 27 16 8 5 12 7 12 8 17 31 37 14 22 7 8 4 6 6 1 7 13 9 12 7 8 14 19 19 6 7 6 11 9 19 19 20 19 17 19
33 36 39 40 42 21 18 4 3 12 10 9 14 19 29 30 15 26 14 5 8 14 5 1 9 18 12 12 12 12 13 17 16 15 3 9 10 9 6 8 16 20 18 18 16
33 36 38 41 32 7 26 9 28 32 4 12 10 8 8 13 17 23 5 3 9 11 13 12 19 11 10 15 13 14 8 14 14 6 4 2 9 6 7 3 12 20 23 22 24
32 35 37 44 9 32 16 24 25 20 5 7 4 7 2 3 6 17 26 8 5 17 18 11 16 14 16 13 13 13 19 16 9 1 5 5 6 8 8 9 6 16 21 22 23
33 34 37 35 20 11 16 25 28 3 4 6 6 4 3 8 4 9 33 6 12 9 8 15 14 14 14 21 14 15 20 21 11 3 2 6 2 8 5 7 6 11 22 23 24
34 35 41 21 19 17 19 26 7 5 6 5 4 11 20 15 5 8 6 7 7 11 9 10 9 15 16 19 14 11 6 3 5 4 4 5 4 14 5 9 6 10 19 24 22
36 37 38 19 6 12 17 5 5 3 6 5 11 16 19 8 13 8 7 9 6 5 8 6 9 11 12 11 16 4 5 4 3 3 8 6 2 13 8 10 15 13 22 24 23
41 40 32 22 13 7 6 5 2 4 7 12 12 19 3 10 12 15 3 7 6 5 5 9 15 10 20 10 13 7 8 6 7 4 9 3 6 11 14 17 18 16 27 24 22
38 30 17 3 5 4 5 4 6 4 4 8 16 5 6 19 7 9 8 4 6 4 9 11 10 16 16 21 9 13 4 9 5 1 2 4 8 10 8 7 5 13 19 22 20
27 14 14 7 9 6 5 5 5 4 7 9 5 5 14 16 9 7 6 7 10 5 3 4 4 7 18 7 20 8 8 2 2 3 8 5 4 6 7 1 8 7 15 15 15
9 4 5 14 15 5 2 6 7 11 10 5 13 9 11 7 4 6 5 9 10 8 5 1 4 7 7 6 17 4 4 5 3 4 7 3 7 6 8 10 12 17 15 19 19
6 2 7 14 3 0 2 4 6 19 25 15 7 8 4 2 5 6 5 3 14 5 5 2 3 3 10 16 10 2 5 6 8 10 1 5 7 5 4 5 5 9 7 4 8
3 3 7 4 1 3 6 7 9 9 7 7 4 6 3 2 3 3 7 9 12 8 3 4 2 5 10 7 9 6 9 6 4 4 16 10 8 6 4 15 13 14 12 12 11
2 4 4 4 1 3 5 7 10 10 8 4 3 7 8 7 2 4 6 6 11 6 12 6 0 4 4 12 9 4 2 2 6 4 6 8 6 5 5 13 13 11 10 13 10
1 3 1 4 4 6 2 5 8 8 7 6 8 5 3 6 7 8 6 10 15 8 3 1 4 2 8 11 7 2 6 9 8 11 2 6 2 3 1 7 5 15 16 16 13
1 3 4 4 5 6 3 6 16 8 7 8 6 11 6 1 1 11 10 6 6 8 4 3 4 3 3 9 7 11 11 11 15 9 6 6 10 15 4 5 7 4 6 5 5
4 5 3 4 5 4 2 10 14 16 8 9 3 4 8 5 8 14 11 10 10 5 5 1 2 0 5 6 8 7 8 16 13 11 1 6 6 8 16 10 6 8 10 6 14
Wind_Direction
7 2 358 356 354 353 350 346 345 343 341 340 338 337 335 330 324 309 251 255 234 267 228 187 221 233 242 248 197 145 302 274 254 273 135 167 154 29 335 123 146 202 148 144 131
4 0 356 354 350 348 345 342 340 338 337 336 335 335 335 331 324 266 290 240 231 260 218 227 238 236 235 253 272 145 170 266 210 278 317 176 152 163 129 112 74 96 118 135 131
1 358 355 351 347 345 342 337 335 334 332 332 331 333 334 330 325 252 333 220 224 254 255 279 282 297 261 288 246 231 260 300 308 292 46 315 175 170 134 163 170 141 142 146 139
359 356 353 348 343 340 336 334 331 328 327 327 328 331 334 333 297 319 1 176 208 234 261 296 310 228 265 294 325 329 293 282 313 319 334 328 122 127 182 195 148 147 147 150 152
357 354 349 344 341 338 332 328 325 324 322 321 324 330 342 337 251 266 285 219 210 214 228 234 246 199 245 278 335 279 315 321 318 320 318 326 300 191 224 134 139 145 151 157 163
355 352 349 343 340 334 329 323 320 317 316 315 314 322 343 275 273 282 241 223 216 198 210 215 237 209 275 266 304 280 314 319 315 305 307 315 294 117 157 142 146 156 159 164 172
353 350 347 342 339 334 328 322 316 313 312 309 307 307 247 239 275 314 253 249 230 207 205 225 233 59 335 315 283 327 347 321 306 303 294 40 315 268 152 151 157 162 166 173 177
355 350 346 342 338 333 327 320 314 314 305 301 294 167 241 274 286 275 251 245 253 224 229 245 243 245 199 263 353 4 10 319 288 319 294 79 276 284 161 154 162 169 174 180 182
353 349 346 342 339 335 328 320 318 307 313 287 152 151 269 294 261 262 248 224 237 236 236 254 234 205 331 67 357 9 256 271 294 288 280 182 259 211 173 164 168 176 178 184 179
349 347 344 342 339 336 327 327 335 41 60 55 41 4 278 275 287 322 298 226 204 219 294 259 146 184 42 88 237 241 268 272 264 290 303 283 297 319 171 170 176 179 179 183 174
347 346 342 339 338 335 338 353 9 351 351 278 261 235 299 289 295 284 288 235 192 161 202 261 127 223 227 204 233 224 242 263 276 277 261 297 278 287 179 181 178 181 179 181 172
344 343 343 337 337 337 359 352 281 308 295 268 259 256 256 267 296 289 289 201 166 215 216 191 230 235 223 228 233 242 251 266 278 266 225 309 297 276 257 196 183 176 174 168 156
342 341 340 337 338 5 336 310 339 347 306 280 240 245 233 204 238 260 177 253 216 212 219 220 243 257 228 244 242 252 237 260 244 282 330 353 299 300 292 293 179 180 170 166 164
338 338 338 338 349 332 313 339 345 349 26 277 259 271 128 182 273 237 251 198 262 207 216 219 254 245 255 252 233 252 255 245 260 37 256 109 274 299 280 307 184 172 166 172 173
335 335 333 341 307 311 310 329 336 37 345 273 279 157 182 156 270 254 234 204 231 229 152 226 228 246 242 241 248 251 257 249 235 219 54 306 84 265 324 291 248 195 175 175 177
331 329 329 330 301 298 333 325 336 51 256 300 339 349 345 325 266 276 202 161 196 231 244 227 217 236 237 255 248 261 248 32 58 110 293 235 156 279 229 232 269 186 187 177 178
328 323 319 299 253 306 321 0 44 150 319 304 338 344 330 316 321 338 209 241 189 177 247 257 254 259 250 274 279 224 69 283 324 344 244 151 164 250 250 238 235 190 183 179 176
326 323 320 286 273 312 350 54 148 263 273 314 332 321 290 8 333 341 296 238 264 190 231 231 262 235 258 206 248 244 159 174 207 222 257 159 224 268 269 262 238 219 179 168 167
327 327 316 12 138 171 72 82 214 237 319 344 328 306 322 338 333 0 327 349 245 141 232 228 237 245 237 262 164 258 188 207 152 87 49 253 294 314 338 37 45 137 152 165 165
327 321 299 138 162 123 74 225 243 240 304 303 289 275 306 317 327 14 330 2 341 43 228 357 358 265 245 237 258 182 232 254 13 168 265 280 281 258 308 329 73 109 147 154 156
329 350 290 164 161 59 152 237 277 272 273 237 280 275 294 308 295 316 312 306 350 325 339 181 132 286 330 239 244 225 210 107 350 144 212 237 270 211 269 250 186 171 160 161 169
354 340 93 154 48 84 191 225 272 300 303 282 212 241 230 324 336 347 321 276 325 274 38 312 231 270 250 274 246 271 287 229 209 255 252 169 259 51 29 356 150 138 90 94 160
343 265 321 172 187 281 290 282 282 290 310 338 295 333 310 310 354 294 326 311 332 342 68 297 327 355 340 344 302 255 255 227 174 27 230 219 254 95 43 54 69 86 82 82 84
15 352 321 33 129 35 342 297 317 308 301 317 342 27 8 336 323 275 319 314 330 326 0 85 176 114 209 251 272 285 16 360 97 161 250 223 195 100 357 109 103 101 96 108 108
121 266 190 317 319 326 281 266 298 320 342 351 356 13 9 328 328 351 326 321 325 295 343 140 237 54 261 271 243 67 38 20 62 9 156 302 190 82 138 139 119 133 135 140 156
64 42 343 283 301 336 345 320 325 313 7 316 8 336 341 349 137 314 318 309 256 310 34 338 304 169 284 303 65 59 27 77 59 12 343 34 62 355 101 78 64 61 141 125 50
332 333 104 282 324 358 310 327 337 344 310 312 300 25 336 323 316 296 260 247 245 259 313 38 205 243 264 294 266 32 353 89 79 49 166 62 336 344 44 2 85 95 88 54 56
Height
825 822 818 815 812 809 805 802 799 796 792 789 786 782 777 772 768 764 759 752 752 754 755 757 759 758 760 758 754 752 788 790 778 759 744 736 739 730 726 735 733 736 741 751 764
825 822 818 814 811 807 803 800 797 794 790 787 784 780 775 770 764 759 748 748 749 751 753 754 755 755 761 753 751 763 792 771 748 732 734 734 731 733 738 743 746 743 744 752 763
826 822 817 813 809 805 801 797 794 791 788 785 781 777 774 768 765 752 747 746 748 750 751 751 752 754 760 750 751 755 771 746 734 726 722 724 728 719 737 750 740 748 750 751 759
826 822 818 813 808 803 798 795 792 789 786 783 780 776 772 769 787 748 748 748 749 750 749 749 750 759 761 765 747 765 745 741 735 727 725 726 720 731 728 725 725 734 741 749 754
827 822 817 812 807 802 797 792 788 785 783 781 778 776 772 772 759 746 747 746 747 748 749 749 753 756 766 756 751 757 746 738 730 725 719 715 720 723 722 718 726 736 741 746 751
825 820 816 811 805 800 795 789 785 781 779 777 776 774 774 780 746 744 744 745 745 746 747 748 749 746 754 754 759 744 744 738 731 725 720 726 721 714 722 715 727 734 739 743 747
825 820 815 809 803 797 791 785 780 777 774 773 772 772 773 756 746 745 744 743 741 742 743 742 742 750 746 755 740 743 757 742 733 728 728 720 734 726 714 715 725 733 735 739 742
824 820 814 808 802 795 788 780 774 771 768 767 768 770 768 743 744 739 740 740 740 739 738 737 740 745 749 741 749 759 759 780 739 733 719 731 761 718 711 717 727 730 732 735 739
824 819 812 806 799 792 784 776 769 763 762 763 766 768 766 740 736 729 733 735 738 737 735 734 738 747 745 767 786 780 794 782 758 727 735 735 744 710 706 711 722 726 727 731 737
824 817 810 804 797 790 781 772 764 761 763 765 767 774 750 740 732 730 730 729 734 736 738 739 745 758 767 784 810 797 790 776 772 735 735 739 733 713 710 711 716 721 724 729 732
822 816 808 801 796 790 780 771 773 770 767 772 765 762 750 731 733 727 727 728 729 737 761 748 768 780 765 765 760 770 779 779 752 732 742 739 737 720 710 711 717 717 721 726 728
821 815 808 799 792 787 785 785 786 787 781 759 752 748 741 736 742 721 726 735 737 751 746 758 775 748 745 748 756 761 772 771 750 733 730 734 736 719 708 708 709 710 718 724 728
821 814 807 798 790 788 786 783 781 777 782 756 739 738 730 728 732 727 722 725 738 748 749 764 745 735 747 749 758 759 771 762 760 733 727 734 746 731 711 699 700 701 703 712 718
819 814 808 799 793 790 783 782 778 775 802 768 745 730 726 726 737 708 707 724 732 742 741 748 731 740 745 750 745 771 734 741 743 749 778 738 787 747 719 713 707 703 706 710 716
818 813 808 806 802 795 786 781 777 775 828 749 736 720 722 731 718 704 697 714 733 734 738 743 738 740 745 737 732 746 723 731 733 748 756 754 776 756 728 722 715 708 700 703 707
814 810 805 803 799 788 785 780 778 809 820 761 736 742 738 725 719 701 701 702 706 727 725 728 712 719 724 716 719 717 729 736 746 763 785 759 767 739 738 721 704 701 698 696 704
810 804 802 797 791 788 786 783 813 822 770 767 762 750 748 742 727 710 711 719 736 752 752 732 728 712 708 728 712 722 754 788 786 792 787 751 763 740 709 698 691 692 689 691 696
806 798 790 785 785 788 786 801 818 792 783 761 760 752 756 745 732 721 718 732 718 729 746 753 758 724 702 721 728 731 751 787 798 801 776 745 765 726 690 669 664 661 668 681 694
802 792 785 781 783 787 795 822 812 789 770 773 767 767 758 748 747 741 735 730 717 723 748 743 745 700 700 695 712 723 745 731 759 763 782 764 738 703 685 679 673 670 678 685 692
804 795 784 781 784 788 806 814 797 774 770 769 785 769 772 758 756 752 746 723 722 710 710 725 746 713 697 693 690 712 705 747 766 776 787 768 752 743 706 694 685 688 686 689 695
805 803 781 781 784 795 815 810 785 767 766 772 770 771 762 762 751 754 745 727 714 715 705 714 731 730 711 714 715 716 722 721 743 756 772 783 764 710 707 692 684 680 683 685 689
810 810 783 786 799 805 807 789 774 766 756 751 752 756 754 754 755 753 749 737 716 714 725 713 728 747 723 692 689 695 711 716 738 754 760 760 754 702 700 692 684 689 688 689 689
818 808 781 782 808 807 795 783 774 767 759 756 754 749 741 749 760 749 740 721 714 716 723 720 743 757 734 711 691 704 696 702 721 729 728 752 747 704 702 699 696 701 701 700 703
820 815 795 790 794 795 799 788 779 759 756 751 752 747 755 757 746 750 742 723 715 713 712 718 745 751 772 748 722 715 700 700 708 745 734 735 720 712 713 708 703 703 704 700 701
820 815 808 815 802 802 795 786 780 772 757 753 754 755 760 767 759 758 743 732 718 711 710 722 746 735 740 718 707 703 707 701 712 722 728 718 712 725 716 719 715 701 698 699 698
821 818 814 813 805 801 792 789 783 769 768 765 763 755 755 762 761 766 756 745 741 722 721 720 743 737 735 724 708 715 701 702 722 736 725 731 737 730 719 718 720 723 716 712 714
817 815 815 812 808 805 798 794 784 775 759 756 754 755 757 751 746 740 738 734 728 725 722 728 742 748 746 729 720 735 729 727 747 745 742 753 757 742 736 739 722 719 720 722 724